Regional Weather Roundup
Issued by NWS Sterling, VA

Home | Current Version | Previous Version | Graphics & Text | Print | Product List | Glossary On
Versions: 1 2 3 4 5 6 7 8 9 10 11 12 13 14 15 16 17 18 19 20 21 22 23 24 25 26 27 28 29 30 31 32 33 34 35 36 37 38 39 40 41 42 43 44 45 46 47 48 49 50
000
ASUS41 KLWX 271110
RWRLWX

REGIONAL WEATHER ROUNDUP
NATIONAL WEATHER SERVICE BALTIMORE MD/WASHINGTON DC
700 AM EDT MON APR 27 2015

Note: "FAIR" indicates few or no clouds below 12,000 feet
with no significant weather and/or obstructions to visibility.
 TC=TEMPERATURE CELSIUS

 * =Non NWS site. Station does not report precipitation (e.g. rain,
    snow, etc.), thunder, or fog.

DCZ001-MDZ009-015-VAZ040>042-051-053>054-271200-
WASHINGTON METRO

CITY           SKY/WX    TMP DP  RH WIND       PRES   REMARKS
WASHINGTON NAT MOCLDY    49  33  54 N9        29.77R
DULLES         PTCLDY    38  33  82 N3        29.77R
ANDREWS AFB    PTCLDY    41  33  74 NW2       29.75R
FT BELVOIR     PTCLDY    39  34  83 CALM      29.77R
QUANTICO       PTCLDY    44  34  67 NW10      29.79R
COLLEGE PARK*  MOCLDY    41  36  81 CALM      29.76S
LEESBURG*      MOCLDY    45  34  65 NW6       29.78R
MANASSAS*      CLEAR     37  37 100 CALM      29.78R
GAITHERSBURG*  CLOUDY    41  32  70 CALM      29.80R

$$

MDZ006>007-011-014-271200-
BALTIMORE METRO

CITY           SKY/WX    TMP DP  RH WIND       PRES   REMARKS
BWI AIRPORT    MOCLDY    45  33  63 W5        29.75R
MD SCIENCE CTR   N/A     51  29  42 MISG      29.76R
MARTIN STATE   MOCLDY    46  36  66 NW3       29.76S
ANNAPOLIS      CLOUDY    47  36  65 W3        29.75R
FORT MEADE*    CLOUDY    41  36  81 CALM      29.78R

$$

MDZ012-015-019>023-271200-
MARYLAND EASTERN SHORE

CITY           SKY/WX    TMP DP  RH WIND       PRES   REMARKS
OCEAN CITY     PTCLDY    37  35  92 NW6       29.73R
SALISBURY      CLEAR     36  35  96 CALM      29.73R
BAY BRIDGE AP*   N/A    N/A N/A N/A N5        29.75S
CAMBRIDGE*     PTCLDY    43  37  81 N3        29.74R
EASTON*        PTCLDY    45  37  76 CALM      29.78R

$$

MDZ017>025-271200-
SOUTHERN MARYLAND

CITY           SKY/WX    TMP DP  RH WIND       PRES   REMARKS
PATUXENT RIVER PTCLDY    45  38  76 N3        29.74R
ST INIGOES     CLOUDY    49  38  65 N6        29.74R
LEONARDTOWN*   CLEAR     43  36  75 CALM      29.76R

$$

MDZ003>005-271200-
NORTH CENTRAL MARYLAND

CITY           SKY/WX    TMP DP  RH WIND       PRES   REMARKS
FREDERICK*     NOT AVBL
HAGERSTOWN APT CLOUDY    46  32  58 W7        29.76S
WESTMINSTER*   CLOUDY    43  32  65 CALM      29.75S

$$

MDZ501>502-271200-
WESTERN MARYLAND

CITY           SKY/WX    TMP DP  RH WIND       PRES   REMARKS
OAKLAND*       PTCLDY    32 N/A N/A W3        29.77R
CUMBERLAND*    PTCLDY    45  32  61 CALM      29.84R

$$

VAZ025>031-271200-
SHENANDOAH VALLEY

CITY           SKY/WX    TMP DP  RH WIND       PRES   REMARKS
WINCHESTER*    CLEAR     41  30  65 NW7       29.78R
FRONT ROYAL*   FAIR      39  32  75 NW3       29.78R
LURAY*         FAIR      37  34  87 CALM      29.79R
NEW MARKET*    FAIR      32  31  96 CALM      29.79R
STAUNTON*      CLEAR     32  31  94 CALM      29.81R
WAYNESBORO*    FAIR      33  33  99 SW3       29.79R

$$

WVZ021-048>050-054>055-271200-
EASTERN WEST VIRGINIA PANHANDLE

CITY           SKY/WX    TMP DP  RH WIND       PRES   REMARKS
MARTINSBURG    CLOUDY    47  30  51 W8        29.78R
PETERSBURG*    CLEAR     34  30  86 CALM      29.83R

$$

VAZ036>039-050-271200-
CENTRAL FOOTHILLS

CITY           SKY/WX    TMP DP  RH WIND       PRES   REMARKS
CHARLOTTESVILL CLEAR     39  34  82 CALM      29.78R
CULPEPER*      CLEAR     37  34  87 CALM      29.79R
ORANGE*        CLEAR     45  32  61 CALM      29.79R
GORDONSVILLE*  FAIR      38  33  81 CALM      29.78R
WARRENTON*     FAIR      37  36  95 CALM      29.77S

$$

VAZ055>057-271200-
NORTH AND CENTRAL PIEDMONT

CITY           SKY/WX    TMP DP  RH WIND       PRES   REMARKS
FREDERICKSBRG* CLEAR     40  38  93 NW3       29.77R
STAFFORD*      CLEAR     39  32  76 NW8       29.82R

$$

NCZ024-NYZ072-PAZ021-071-VAZ022-071-271200-
OTHER REGIONAL OBSERVATIONS

CITY           SKY/WX    TMP DP  RH WIND       PRES   REMARKS
NEW YORK CITY  CLOUDY    49  31  49 NW6       29.69S
PHILADELPHIA   MOCLDY    49  30  48 NW9       29.73R
PITTSBURGH     PTCLDY    37  31  78 NW9       29.84R
ROANOKE        CLEAR     39  36  89 W6        29.83R
RICHMOND       PTCLDY    45  39  79 N8        29.75R
RALEIGH        PTCLDY    40  40 100 CALM      29.79R

$$

ANZ530>537-271200-
MARINE OBSERVATIONS

STATION/POSITION TIME  TEMP    WIND        PRES
                       AIR SEA DIR/SP/G
                 (UTC) (F)     (DEG/KT/KT) (MB)
THOMAS PT LIGHT  1100   49 53  320/  6/  7 1008.2R
BALT KEY BRIDGE  1000   51     330/  7/  8 1007.1R
COVE POINT       1000   51      40/ 10/ 12 1007.4R
LEWISETTA        1000   52 57              1006.2R
SOLOMONS ISLAND  1000      54                N/A
PINEY POINT      1000           60/  9/ 11   N/A

$$




USA.gov is the U.S. government's official web portal to all federal, state and local government web resources and services.